Location: �quirre
(50.4736°N, 2.2351°E)
Time: 15:39:49
(UTC+00:00)

Cosmos 1766 - Pass Details

Date: 07 August 2020
Orbit: 522 x 543 km, 82.5° (Epoch: 24 September)

Event Time Altitude Azimuth Distance (km) Brightness Sun altitude
Exits shadow 02:25:51 31° 222° (SW) 948 3.9 -15.6°
Maximum altitude 02:27:26 54° 284° (WNW) 654 3.5 -15.5°
Drops below altitude 10° 02:31:16 10° 2° (N) 1,783 6.7 -15.1°
Sets 02:33:28 0° 7° (N) 2,675 7.9 -14.9°
